Date/Time (UTC),ProbHail,ProbWind,ProbTor,MESH,VIL Density,Flash Rate,Max Flash Density,LJA sigma-level,Max 0-2km AzShear,LLAZ 98th%,MLAZ 98th%,MUCAPE,MLCAPE,CAPE -10C to -30C,MLCIN,SRH 0-1km AGL,EBShear,MeanWind 0-1km AGL,Norm. Sat. Growth Rate,PWAT,WBZ,AvgBeamHgt,size
2019/10/21 00:08,92,95,69,1.2,3.0,52,0.65,0.0,11,10,12,2407,2388,707,12,251,54.6,29.4,3.1,1.5,11.1,1.8,253
2019/10/21 00:10,92,95,69,1.2,3.0,52,0.65,0.0,11,10,12,2414,2392,713,12,251,54.5,29.5,3.1,1.5,11.1,1.8,263
2019/10/21 00:12,92,95,69,1.2,3.0,52,0.65,0.0,11,10,13,2430,2400,725,13,253,54.2,29.4,3.1,1.5,11.1,1.7,276
2019/10/21 00:14,91,95,62,1.1,3.0,52,0.65,0.0,11,9,13,2434,2402,727,13,253,54.2,29.5,3.1,1.5,11.0,1.7,273
2019/10/21 00:16,85,92,27,1.07,2.9,35,0.65,0.0,8,5,5,2457,2414,739,14,257,53.9,29.4,3.1,1.5,11.1,1.6,290
2019/10/21 00:18,77,91,24,0.92,2.4,35,0.65,0.0,8,5,13,2457,2414,739,14,257,53.9,29.4,3.1,1.5,11.1,1.6,290
2019/10/21 00:20,77,91,26,0.92,2.7,35,0.65,0.0,8,6,9,2464,2418,743,14,257,53.8,29.3,3.1,1.5,11.1,1.6,319
2019/10/21 00:22,85,95,39,0.92,2.7,55,0.65,2.2,10,7,16,2473,2423,747,14,258,53.6,29.2,3.1,1.5,11.1,1.5,332
2019/10/21 00:24,84,97,37,0.85,2.7,55,0.65,0.0,10,7,6,2500,2441,760,15,261,53.3,29.0,3.1,1.5,11.1,1.3,373
2019/10/21 00:26,84,97,43,0.85,2.7,55,0.65,0.1,11,7,15,2500,2441,760,15,261,53.3,29.0,3.1,1.5,11.1,1.3,373
2019/10/21 00:28,91,95,43,1.08,3.0,55,0.65,0.1,11,7,15,2503,2443,762,15,262,53.3,29.0,3.1,1.5,11.1,1.3,377
2019/10/21 00:30,89,95,43,1.13,3.0,40,0.68,0.0,9,7,12,2521,2457,772,15,264,53.2,28.9,3.1,1.5,11.2,1.3,366
2019/10/21 00:32,93,95,43,1.26,3.0,40,0.68,0.0,9,7,12,2527,2463,776,15,265,53.1,28.8,3.1,1.5,11.2,1.2,365
2019/10/21 00:34,94,95,33,1.26,2.9,49,0.68,1.7,9,7,11,2537,2473,786,16,268,52.9,28.7,3.1,1.5,11.2,1.1,308
2019/10/21 00:36,95,95,35,1.31,3.2,50,0.7,0.2,9,7,9,2550,2483,791,16,270,52.8,28.6,3.1,1.5,11.2,1.0,374
2019/10/21 00:38,97,95,27,1.31,3.2,72,0.93,4.4,8,6,8,2570,2501,798,16,274,52.7,28.4,3.1,1.5,11.3,1.0,396
2019/10/21 00:40,97,95,20,1.31,3.2,72,0.93,0.0,7,5,10,2570,2501,798,16,274,52.7,28.4,3.1,1.5,11.3,1.0,396
2019/10/21 00:42,88,95,20,0.9,2.8,72,0.93,0.0,7,5,10,2570,2502,799,16,274,52.7,28.4,3.1,1.5,11.3,1.0,394
2019/10/21 00:44,90,95,26,0.9,2.8,72,0.93,0.3,7,5,10,2583,2515,802,17,276,52.6,28.4,3.1,1.5,11.3,1.0,389
2019/10/21 00:46,87,92,26,0.92,2.5,53,0.93,0.2,6,5,10,2591,2523,805,17,277,52.6,28.4,3.1,1.5,11.3,1.0,383
2019/10/21 00:48,89,95,30,0.92,2.6,63,0.93,1.2,9,6,10,2600,2533,807,18,278,52.6,28.4,3.1,1.5,11.3,1.0,396
2019/10/21 00:50,91,95,30,0.98,2.9,63,0.93,0.0,9,6,9,2607,2541,810,18,279,52.5,28.3,3.1,1.5,11.3,1.0,366
2019/10/21 00:52,91,95,30,0.98,2.9,63,0.93,0.0,9,6,10,2614,2551,813,18,279,52.4,28.2,3.1,1.5,11.3,1.0,355
2019/10/21 00:54,91,95,20,0.98,2.9,63,0.93,0.0,7,5,9,2623,2565,818,18,279,52.4,28.0,3.1,1.5,11.3,0.9,378
2019/10/21 00:56,76,91,22,0.8,2.6,39,0.93,0.0,7,5,7,2631,2572,820,19,280,52.3,27.9,3.1,1.5,11.4,1.0,390
2019/10/21 00:58,76,88,27,0.8,2.6,37,0.93,0.0,11,4,9,2640,2579,823,19,280,52.3,27.9,3.1,1.5,11.4,1.0,410
2019/10/21 01:00,71,78,27,0.75,2.4,35,0.93,0.0,6,4,8,2650,2586,825,20,281,52.2,27.8,3.1,1.5,11.4,1.1,390
2019/10/21 01:02,73,77,27,0.75,2.1,37,0.93,6.2,7,4,8,2650,2586,825,20,281,52.2,27.8,3.1,1.5,11.4,1.1,390
2019/10/21 01:04,73,81,17,0.78,2.1,37,0.93,0.0,9,5,8,2651,2587,826,20,281,52.2,27.7,3.1,1.5,11.4,1.1,419
2019/10/21 01:06,73,85,25,0.78,2.1,37,0.93,0.0,9,6,9,2652,2588,826,20,281,52.1,27.8,3.1,1.5,11.4,1.0,292
2019/10/21 01:08,79,91,27,0.87,2.4,37,0.93,1.0,9,6,7,2662,2594,829,20,280,52.1,27.6,Storm,1.5,11.4,1.0,281
2019/10/21 01:10,89,95,37,1.01,2.4,46,0.78,1.8,11,7,7,2662,2594,829,20,280,52.1,27.6,Storm,1.5,11.4,1.0,281
2019/10/21 01:12,81,94,66,1.01,2.6,46,0.78,0.0,13,10,10,2667,2596,830,20,280,52.1,27.5,0,1.5,11.4,1.1,316
2019/10/21 01:14,83,97,70,1.09,2.9,46,0.78,0.3,13,10,10,2671,2597,831,19,280,52.1,27.5,0,1.5,11.4,1.1,311
2019/10/21 01:16,83,97,68,1.09,3.0,46,0.78,0.2,13,10,10,2678,2599,833,19,279,52.1,27.4,0,1.5,11.4,1.1,359
2019/10/21 01:18,79,97,57,1.09,3.0,39,0.78,0.2,12,8,9,2681,2601,833,19,279,52.1,27.4,0,1.5,11.4,1.1,339
2019/10/21 01:20,88,95,53,1.12,3.1,59,0.78,2.1,12,8,9,2685,2601,834,18,279,52.2,27.3,0,1.5,11.4,1.1,334
2019/10/21 01:22,88,95,42,1.14,3.1,59,0.78,0.0,9,7,10,2691,2602,835,18,279,52.3,27.3,0,1.5,11.4,1.2,350
2019/10/21 01:24,91,95,59,1.2,3.3,59,0.78,0.3,14,8,10,2706,2604,837,17,279,52.5,27.3,0,1.5,11.5,1.3,372
2019/10/21 01:26,91,95,59,1.2,3.3,59,0.78,0.8,14,8,8,2704,2604,837,17,279,52.5,27.3,0,1.5,11.5,1.3,363
2019/10/21 01:28,89,95,58,1.2,3.3,50,0.78,0.2,14,8,8,2712,2605,838,17,280,52.6,27.3,0,1.5,11.5,1.3,361
2019/10/21 01:30,88,95,61,1.2,3.3,50,0.78,0.0,14,7,9,2665,2494,829,16,308,56.6,31.6,0,1.6,11.5,1.4,383
2019/10/21 01:32,87,95,61,1.14,3.2,65,0.78,1.8,14,7,9,2684,2502,831,16,309,56.6,31.5,0,1.6,11.5,1.4,379
2019/10/21 01:34,88,95,61,1.14,3.2,68,0.78,0.3,14,7,9,2710,2507,833,16,309,56.6,31.4,0,1.6,11.5,1.5,403
2019/10/21 01:36,86,95,57,1.07,3.4,68,0.78,0.0,14,6,7,2737,2516,835,15,309,56.7,31.3,0,1.6,11.5,1.5,458
2019/10/21 01:38,86,95,45,1.07,3.4,68,0.78,0.6,10,7,7,2755,2522,837,15,308,56.7,31.2,0,1.6,11.5,1.6,489
2019/10/21 01:40,89,95,37,1.07,3.4,91,0.97,2.1,10,7,7,2769,2526,838,15,308,56.7,31.2,0,1.6,11.5,1.6,543
2019/10/21 01:42,89,95,37,1.06,3.3,91,0.97,0.0,9,7,7,2765,2525,838,15,308,56.7,31.2,0,1.6,11.5,1.6,573
2019/10/21 01:44,89,95,59,1.06,2.6,91,0.97,1.2,12,7,9,2767,2528,838,15,308,56.7,31.1,0,1.6,11.5,1.6,686
2019/10/21 01:46,91,95,68,1.19,3.1,91,0.97,0.0,13,8,9,2774,2528,838,15,308,56.7,31.1,0,1.6,11.5,1.6,748
2019/10/21 01:48,97,95,79,1.59,3.2,81,0.97,0.2,16,8,10,2797,2550,842,15,308,56.7,30.9,0,1.6,11.5,1.8,677
2019/10/21 01:50,97,95,79,1.59,3.5,81,0.97,0.6,16,8,10,2799,2553,842,15,308,56.7,30.9,0,1.6,11.5,1.9,679
2019/10/21 01:52,96,95,80,1.59,3.8,73,0.97,0.0,16,9,10,2797,2559,843,15,308,56.7,30.8,0,1.6,11.5,2.0,725
2019/10/21 01:54,95,95,80,1.41,3.8,73,0.97,0.0,16,9,9,2793,2569,845,15,307,56.7,30.8,0,1.6,11.5,2.1,720
2019/10/21 01:56,94,95,81,1.37,3.8,83,0.97,1.4,14,9,9,2699,2575,884,35,337,55.7,35.2,0,1.7,11.5,2.1,705
2019/10/21 01:58,96,95,71,1.59,3.5,92,0.97,0.7,14,9,7,2704,2579,886,34,337,55.7,35.2,0,1.7,11.5,2.2,733
2019/10/21 02:00,97,95,81,1.59,3.2,101,0.97,0.7,22,9,7,2703,2580,887,34,337,55.7,35.3,0,1.7,11.5,2.2,764
2019/10/21 02:02,97,95,73,1.59,3.1,101,0.97,0.0,22,9,7,2709,2588,890,33,338,55.7,35.3,0,1.7,11.5,2.4,744
2019/10/21 02:04,96,95,73,1.51,3.1,101,0.97,0.2,20,9,7,2709,2589,890,32,338,55.7,35.3,0,1.7,11.5,2.4,757
2019/10/21 02:06,95,95,78,1.37,3.0,101,0.97,0.5,20,9,8,2716,2601,894,31,342,55.7,35.3,0,1.7,11.5,2.5,789
2019/10/21 02:08,89,95,80,1.18,3.0,81,0.97,0.2,20,9,9,2719,2605,895,30,343,55.8,35.2,0,1.7,11.5,2.6,774
2019/10/21 02:10,88,95,80,1.03,3.0,106,0.97,1.4,24,9,8,2725,2613,897,29,347,55.7,35.2,0,1.7,11.5,2.8,839
2019/10/21 02:12,86,95,88,0.93,2.8,135,0.7,1.4,30,10,11,2719,2618,899,27,352,55.5,35.1,0,1.7,11.5,2.9,865
2019/10/21 02:14,88,95,89,0.96,2.4,135,0.7,0.0,22,10,11,2720,2618,899,26,353,55.5,35.1,0,1.7,11.5,3.0,840
2019/10/21 02:16,90,95,88,0.96,2.4,135,0.61,0.0,22,10,10,2714,2619,902,25,359,55.5,35.0,0,1.7,11.5,3.1,897
2019/10/21 02:18,90,95,87,1.0,2.5,135,0.61,0.4,22,10,10,2708,2617,906,24,364,55.4,34.9,0,1.7,11.5,3.2,892
2019/10/21 02:20,84,95,80,1.0,2.5,85,0.69,0.2,22,8,10,2706,2615,910,24,367,55.4,34.9,0,1.7,11.5,3.3,953
2019/10/21 02:22,92,95,86,1.06,2.5,130,1.01,1.5,20,9,10,2701,2608,918,23,369,55.3,34.9,0,1.7,11.5,3.4,944
2019/10/21 02:24,92,95,86,1.06,2.5,130,1.01,0.0,20,9,8,2698,2607,923,23,370,55.1,34.9,0,1.7,11.5,3.5,918
2019/10/21 02:26,92,95,86,1.06,2.5,130,1.01,0.0,20,9,8,2694,2601,926,22,371,55.0,34.9,0,1.7,11.5,3.6,975
2019/10/21 02:28,88,95,78,0.91,2.5,130,1.01,0.2,20,9,8,2687,2596,930,22,374,54.7,34.8,0,1.7,11.5,3.8,992
2019/10/21 02:30,84,95,72,0.81,2.3,111,1.01,0.8,21,7,7,2685,2593,932,21,376,54.2,34.8,0,1.7,11.5,3.9,975
2019/10/21 02:32,81,95,77,0.79,2.3,112,1.01,0.0,21,8,7,2684,2592,932,22,376,54.3,34.8,0,1.7,11.5,3.9,983
2019/10/21 02:34,81,95,71,0.79,2.3,112,1.01,0.0,21,8,6,2680,2571,931,21,384,53.0,34.6,0,1.7,11.5,4.2,1099
2019/10/21 02:36,81,95,71,0.79,2.5,112,1.01,0.5,21,8,7,2674,2557,932,21,384,52.8,34.6,0,1.7,11.5,4.3,1074
2019/10/21 02:38,86,95,69,0.87,2.6,112,1.01,0.4,21,8,6,2671,2551,932,21,386,52.3,34.5,0,1.7,11.5,4.4,1116
2019/10/21 02:40,86,95,69,0.87,2.6,113,1.01,0.6,25,8,7,2666,2535,932,21,389,52.4,34.5,0,1.7,11.5,4.4,1039
2019/10/21 02:42,92,95,76,1.07,3.0,113,1.01,0.0,25,9,8,2657,2535,933,21,381,52.4,34.7,0,1.7,11.5,4.3,841
2019/10/21 02:44,92,95,74,1.07,3.0,113,1.01,1.3,25,9,7,2659,2513,931,21,392,52.0,34.5,0,1.7,11.5,4.5,1005
2019/10/21 02:46,92,95,74,1.07,3.0,113,1.01,0.0,25,9,7,2656,2486,927,21,393,51.7,34.4,0,1.7,11.5,4.7,970
2019/10/21 02:48,90,95,66,1.05,2.9,107,1.01,0.0,23,8,6,2653,2467,925,21,396,51.5,34.1,0,1.7,11.5,4.9,925
2019/10/21 02:50,86,95,64,0.89,2.4,125,1.01,2.0,23,8,6,2655,2470,926,21,406,51.2,34.1,0,1.7,11.5,4.9,899
2019/10/21 02:52,81,95,74,0.76,2.2,125,1.01,0.0,16,9,8,2615,2501,935,21,376,52.2,34.8,0,1.7,11.5,4.3,457
2019/10/21 02:54,61,95,75,0.79,2.5,125,0.74,0.0,16,9,8,2521,2369,902,23,425,55.4,41.9,0,2.0,11.5,4.5,392
2019/10/21 02:56,58,95,73,0.79,2.5,125,0.74,1.5,16,9,7,2581,2332,882,23,416,54.6,41.2,0,2.0,11.5,5.4,794
2019/10/21 02:58,67,95,86,0.98,2.5,85,0.74,0.0,19,9,10,2515,2353,902,24,424,55.4,42.0,0,2.0,11.5,4.6,389
